STARLINK-11590, 63112

Orbit data source: Space-Track

STARLINK-11590, 63112 is a payload satellite owned by SpaceX/Seattle (US) in LEO that was launched on Thu, 27 Feb 2025 UTC via an FALCON 9 launch vehicle from the Air Force Eastern Test Range (AFETR). Payload-class satellites include a variety of spacecraft equipped with specific instruments for various scientific and technological missions. These include communications satellites like Starlink; space stations such as the ISS; scientific satellites like the Hubble; Earth observation satellites from companies like Planet Labs, Umbra, and HawkEye 360; GPS; miniature CubeSats for education and research; and military/defense satellites.

Loading next visibility...
Identifier
63112, 2025-039J
Orbit
LEO
Country
Flag of USUS
Related business
Manufacturer
SpaceX/Seattle
Mission
Operational Commercial Communications
Bus & Motor
STARLINK V2MD, Unknown motor
Mass
960 kg wet, ~910 kg dry
Launch date (UTC)
2025-02-27 (8 months ago)
Launch vehicle
FALCON 9
Launch site
Air Force Eastern Test Range (AFETR)
Object type
Payload
Rocket body
Debris
Shape & HBR
Box + 2 Pan, 18.1 m
Radar Cross Section
36.964 m², Large (>1 m²)

Expand to show TLE details & history
Last TLE update: 1 day ago

TLE from 1 day ago
0 STARLINK-11590
1 63112U 25039J   25295.28880227  .00255468  00000-0  19324-2 0  9993
2 63112  42.9992 351.5234 0000854 270.9130  89.1639 15.70857475 37849
Epoch: 2025-10-22T06:55Z
TLE epoch observation values (Epoch: 2025-10-22T06:55:52.516Z)
Latitude
-0.00006°
Longitude
-143.41003°
Altitude
356.208 km
Speed
7.697 km/s
True Right ascension
23h 26m 05s
True Declination
0° 00' 00"
Sunlit
Object was in full shadow at epoch
Visualization orbit readout
Latitude
Unknown
Longitude
Unknown
Altitude
Unknown
Speed
Unknown
Apparent Right ascension
Unknown
Apparent Declination
Unknown
Sunlit
N/A
Visualization observer readout
Local Sidereal Time
01:48:00
Azimuth
Unknown
Elevation
Unknown
Doppler factor
Unknown
Orbital elements
Apogee altitude
359.002 km
Perigee altitude
357.852 km
Semi-major axis
6,736.564 km
Eccentricity
0.00009
Inclination
42.9992°
RAAN
351.5234°
Arg. of periapsis
270.913°
True anomaly
89.17369°
Mean anomaly
89.1639°
Eccentric anomaly
89.16879°
Mean motion
3.92541 °/min
Orbital period
91.71 mins
BSTAR
0.0019324
Loading maneuver chart data...
Computing Atmospheric mass density...
Loading historical data...
Loading historical data...
Loading historical data...
Loading historical data...
Loading historical data...
Loading historical data...
Loading historical data...

Documentation

Showing up to 5 results
|